• In Hungary
  • List of Countries
  • For 7 days
  • Water Temperature
  • Satellite Maps
  • Weather Map
  • News
  • Weather Widgets
  • user-avatar
    Login

    Hourly Weather Devichi Gorki

    Today, 18 July, Wednesday

    Time Temperature Precipitation Wind Pressure Humidity
    00:00 +21°C° 0.1 mm 3 mps 746 mmHg 86%
    01:00 +21°C° 0 mm 2 mps 746 mmHg 86%
    02:00 +20°C° 0 mm 2 mps 746 mmHg 87%
    03:00 +20°C° 0 mm 2 mps 746 mmHg 88%
    04:00 +21°C° 0 mm 3 mps 747 mmHg 86%
    05:00 +21°C° 0 mm 3 mps 747 mmHg 84%
    06:00 +22°C° 0 mm 3 mps 747 mmHg 83%
    07:00 +23°C° 0.5 mm 4 mps 747 mmHg 77%
    08:00 +26°C° 0.5 mm 5 mps 747 mmHg 72%
    09:00 +27°C° 0.5 mm 6 mps 747 mmHg 67%
    10:00 +27°C° 0.3 mm 6 mps 747 mmHg 64%
    11:00 +28°C° 0.3 mm 6 mps 748 mmHg 61%
    12:00 +29°C° 0.3 mm 6 mps 748 mmHg 59%
    13:00 +29°C° 0.2 mm 6 mps 748 mmHg 57%
    14:00 +29°C° 0.2 mm 5 mps 748 mmHg 55%
    15:00 +29°C° 0.2 mm 5 mps 748 mmHg 53%
    16:00 +29°C° 0.2 mm 4 mps 748 mmHg 56%
    17:00 +28°C° 0.2 mm 3 mps 748 mmHg 59%
    18:00 +28°C° 0.2 mm 3 mps 748 mmHg 62%
    19:00 +27°C° 0.1 mm 2 mps 749 mmHg 64%
    20:00 +26°C° 0.1 mm 2 mps 749 mmHg 65%
    21:00 +24°C° 0.1 mm 2 mps 749 mmHg 67%
    22:00 +24°C° 0 mm 2 mps 749 mmHg 68%
    23:00 +24°C° 0 mm 2 mps 749 mmHg 69%

    Tomorrow, 19 July, Thursday

    Time Temperature Precipitation Wind Pressure Humidity
    00:00 +23°C° 0 mm 2 mps 750 mmHg 70%
    01:00 +23°C° 0 mm 2 mps 750 mmHg 71%
    02:00 +21°C° 0 mm 2 mps 750 mmHg 72%
    03:00 +22°C° 0 mm 1 mps 750 mmHg 73%
    04:00 +23°C° 0 mm 1 mps 750 mmHg 72%
    05:00 +23°C° 0 mm 2 mps 750 mmHg 71%
    06:00 +24°C° 0 mm 2 mps 751 mmHg 70%
    07:00 +26°C° 0 mm 2 mps 751 mmHg 65%
    08:00 +28°C° 0 mm 3 mps 751 mmHg 59%
    09:00 +29°C° 0 mm 4 mps 751 mmHg 54%
    10:00 +30°C° 0 mm 4 mps 751 mmHg 51%
    11:00 +32°C° 0 mm 4 mps 751 mmHg 48%
    12:00 +33°C° 0 mm 5 mps 751 mmHg 45%
    13:00 +33°C° 0 mm 4 mps 751 mmHg 44%
    14:00 +33°C° 0 mm 4 mps 751 mmHg 44%
    15:00 +33°C° 0 mm 4 mps 752 mmHg 43%
    16:00 +33°C° 0 mm 3 mps 752 mmHg 47%
    17:00 +31°C° 0 mm 2 mps 752 mmHg 50%
    18:00 +31°C° 0 mm 1 mps 752 mmHg 54%
    19:00 +29°C° 0.1 mm 2 mps 752 mmHg 58%
    20:00 +28°C° 0.1 mm 2 mps 752 mmHg 61%
    21:00 +26°C° 0.1 mm 3 mps 752 mmHg 64%
    22:00 +25°C° 1.1 mm 2 mps 752 mmHg 70%
    23:00 +24°C° 1.1 mm 2 mps 752 mmHg 75%

    Day after tomorrow, 20 July, Friday

    Time Temperature Precipitation Wind Pressure Humidity
    00:00 +23°C° 1.1 mm 1 mps 752 mmHg 81%
    01:00 +23°C° 0.2 mm 1 mps 752 mmHg 82%
    02:00 +23°C° 0.2 mm 2 mps 752 mmHg 83%
    03:00 +21°C° 0.2 mm 2 mps 752 mmHg 84%
    04:00 +23°C° 0.5 mm 2 mps 752 mmHg 84%
    05:00 +22°C° 0.5 mm 3 mps 752 mmHg 83%
    06:00 +22°C° 0.5 mm 3 mps 752 mmHg 83%
    07:00 +25°C° 0 mm 3 mps 752 mmHg 78%
    08:00 +26°C° 0 mm 3 mps 752 mmHg 74%
    09:00 +27°C° 0 mm 3 mps 752 mmHg 70%
    10:00 +29°C° 0 mm 4 mps 752 mmHg 63%
    11:00 +32°C° 0 mm 4 mps 751 mmHg 56%
    12:00 +34°C° 0 mm 5 mps 751 mmHg 48%
    13:00 +35°C° 0 mm 5 mps 751 mmHg 46%
    14:00 +36°C° 0 mm 5 mps 751 mmHg 43%
    15:00 +36°C° 0 mm 5 mps 751 mmHg 41%
    16:00 +33°C° 2.7 mm 5 mps 751 mmHg 53%
    17:00 +29°C° 2.7 mm 6 mps 750 mmHg 65%
    18:00 +26°C° 2.7 mm 6 mps 750 mmHg 78%
    19:00 +25°C° 2.6 mm 5 mps 751 mmHg 80%
    20:00 +23°C° 2.6 mm 4 mps 751 mmHg 83%
    21:00 +24°C° 2.6 mm 3 mps 751 mmHg 85%
    22:00 +24°C° 0.4 mm 3 mps 751 mmHg 85%
    23:00 +24°C° 0.4 mm 3 mps 751 mmHg 84%

    21 July, Saturday

    Time Temperature Precipitation Wind Pressure Humidity
    00:00 +24°C° 0.4 mm 3 mps 751 mmHg 84%
    01:00 +24°C° 0 mm 3 mps 751 mmHg 84%
    02:00 +23°C° 0 mm 2 mps 751 mmHg 84%
    03:00 +23°C° 0 mm 2 mps 751 mmHg 85%
    04:00 +23°C° 0 mm 2 mps 751 mmHg 84%
    05:00 +24°C° 0 mm 2 mps 751 mmHg 82%
    06:00 +24°C° 0 mm 3 mps 752 mmHg 81%
    07:00 +26°C° 0 mm 3 mps 752 mmHg 76%
    08:00 +27°C° 0 mm 3 mps 752 mmHg 70%
    09:00 +29°C° 0 mm 4 mps 752 mmHg 65%
    10:00 +30°C° 0 mm 4 mps 752 mmHg 60%
    11:00 +32°C° 0 mm 4 mps 751 mmHg 55%
    12:00 +34°C° 0 mm 4 mps 751 mmHg 49%
    13:00 +34°C° 0 mm 4 mps 751 mmHg 48%
    14:00 +34°C° 0 mm 5 mps 751 mmHg 48%
    15:00 +35°C° 0 mm 5 mps 751 mmHg 47%
    16:00 +34°C° 0 mm 4 mps 751 mmHg 51%
    17:00 +33°C° 0 mm 4 mps 751 mmHg 55%
    18:00 +32°C° 0 mm 4 mps 751 mmHg 60%
    19:00 +30°C° 0 mm 4 mps 751 mmHg 63%
    20:00 +29°C° 0 mm 4 mps 751 mmHg 66%
    21:00 +27°C° 0 mm 4 mps 751 mmHg 70%
    22:00 +27°C° 0 mm 4 mps 751 mmHg 72%
    23:00 +26°C° 0 mm 4 mps 751 mmHg 75%

    22 July, Sunday

    Time Temperature Precipitation Wind Pressure Humidity
    00:00 +25°C° 0 mm 4 mps 751 mmHg 77%
    01:00 +25°C° 1 mm 4 mps 750 mmHg 81%
    02:00 +24°C° 1 mm 3 mps 750 mmHg 84%
    03:00 +22°C° 1 mm 3 mps 750 mmHg 87%
    04:00 +22°C° 0.1 mm 4 mps 750 mmHg 85%
    05:00 +22°C° 0.1 mm 4 mps 750 mmHg 83%
    06:00 +22°C° 0.1 mm 5 mps 750 mmHg 81%
    07:00 +24°C° 0.1 mm 6 mps 750 mmHg 75%
    08:00 +26°C° 0.1 mm 6 mps 750 mmHg 70%
    09:00 +28°C° 0.1 mm 6 mps 750 mmHg 64%
    10:00 +30°C° 0 mm 6 mps 750 mmHg 58%
    11:00 +33°C° 0 mm 6 mps 749 mmHg 51%
    12:00 +35°C° 0 mm 6 mps 749 mmHg 44%
    13:00 +35°C° 0 mm 6 mps 749 mmHg 43%
    14:00 +36°C° 0 mm 7 mps 749 mmHg 41%
    15:00 +36°C° 0 mm 7 mps 749 mmHg 40%
    16:00 +35°C° 0 mm 6 mps 749 mmHg 44%
    17:00 +34°C° 0 mm 6 mps 749 mmHg 48%
    18:00 +32°C° 0 mm 5 mps 749 mmHg 53%
    19:00 +29°C° 1 mm 5 mps 749 mmHg 60%
    20:00 +27°C° 1 mm 5 mps 750 mmHg 68%
    21:00 +25°C° 1 mm 5 mps 750 mmHg 75%
    22:00 +23°C° 1.2 mm 4 mps 750 mmHg 78%
    23:00 +23°C° 1.2 mm 4 mps 750 mmHg 81%

    23 July, Monday

    Time Temperature Precipitation Wind Pressure Humidity
    00:00 +22°C° 1.2 mm 3 mps 751 mmHg 84%
    01:00 +22°C° 0.7 mm 3 mps 751 mmHg 84%
    02:00 +21°C° 0.7 mm 4 mps 751 mmHg 85%
    03:00 +21°C° 0.7 mm 4 mps 751 mmHg 86%
    04:00 +21°C° 0.2 mm 4 mps 751 mmHg 83%
    05:00 +21°C° 0.2 mm 5 mps 751 mmHg 81%
    06:00 +21°C° 0.2 mm 5 mps 751 mmHg 78%
    07:00 +22°C° 0.1 mm 6 mps 752 mmHg 73%
    08:00 +23°C° 0.1 mm 6 mps 752 mmHg 69%
    09:00 +24°C° 0.1 mm 6 mps 752 mmHg 64%
    10:00 +26°C° 0 mm 6 mps 752 mmHg 62%
    11:00 +27°C° 0 mm 6 mps 752 mmHg 60%
    12:00 +28°C° 0 mm 7 mps 752 mmHg 57%
    13:00 +28°C° 0.2 mm 7 mps 752 mmHg 57%
    14:00 +28°C° 0.2 mm 7 mps 752 mmHg 57%
    15:00 +28°C° 0.2 mm 7 mps 752 mmHg 56%
    16:00 +28°C° 0.1 mm 6 mps 753 mmHg 58%
    17:00 +28°C° 0.1 mm 5 mps 753 mmHg 59%
    18:00 +27°C° 0.1 mm 5 mps 753 mmHg 60%
    19:00 +26°C° 0.1 mm 5 mps 753 mmHg 62%
    20:00 +25°C° 0.1 mm 5 mps 753 mmHg 64%
    21:00 +22°C° 0.1 mm 5 mps 753 mmHg 66%
    22:00 +22°C° 0.2 mm 4 mps 753 mmHg 64%
    23:00 +22°C° 0.2 mm 4 mps 753 mmHg 63%
    Show more